Location: Mountain_View
(35.6670°N, 81.4000°W)
Time: 21:19:58
(UTC-04:00)

Daily predictions for brighter satellites

Satellite Brightness Start Highest point End
(mag) Time Altitude Azimuth Time Altitude Azimuth Time Altitude Azimuth
CENTAUR R/B 3.3 20:47:28 10° NNW 20:55:35 85° WSW 21:04:02 10° SSE
Meteor 1-19 Rocket 4.3 20:51:48 10° S 20:57:33 70° E 21:03:14 10° NNE
Resurs 01 Rocket 1.7 20:55:37 10° SSE 21:00:03 88° W 21:04:29 10° NNW
Cosmos 2082 Rocket 3.6 20:56:35 10° SE 21:00:04 17° E 21:03:34 10° ENE
Cosmos 374 Rocket 4.4 20:59:49 10° NNW 21:03:35 83° WSW 21:07:47 10° SSE
Nadezhda 1 Rocket 4.3 20:58:21 10° SSE 21:04:26 49° E 21:10:33 10° NNE
Aureole 1 Rocket 2.3 21:01:20 10° SSW 21:04:37 79° WNW 21:07:36 10° NNE
Aureole 3 Rocket 3.5 20:58:50 10° S 21:04:56 65° E 21:09:18 10° NNE
COSMOS 2406 4.1 21:00:51 10° SW 21:06:28 56° WNW 21:12:04 10° NNE
COSMOS 2487 4.2 21:05:35 10° SE 21:07:43 15° E 21:09:52 10° ENE
Cosmos 405 4.0 21:05:43 10° NNE 21:08:50 28° ENE 21:11:54 10° SE
Helios 1B rocket 2.7 21:06:06 10° NNE 21:10:05 46° E 21:14:03 10° S
Cosmos 1743 2.7 21:07:35 10° N 21:11:30 89° E 21:15:24 10° S
ASTEX 1 4.2 21:14:13 10° SE 21:18:35 34° ENE 21:22:58 10° NNE
PSLV R/B 3.0 21:16:54 10° WNW 21:20:02 86° NNE 21:22:44 13° ESE
Cosmos 1656 Rocket 4.5 21:16:57 10° NNW 21:22:12 49° WSW 21:27:31 10° S
Meteor 2-13 Rocket 4.4 21:17:24 10° N 21:23:30 81° E 21:29:35 10° S
Cosmos 1666 2.6 21:22:30 10° N 21:26:15 88° E 21:30:00 10° S
Okean 2 3.8 21:22:26 10° SSE 21:26:16 41° E 21:30:07 10° NNE
Cosmos 2154 Rocket 4.4 21:23:22 10° N 21:29:28 46° E 21:35:14 11° SSE
Cosmos 967 Rocket 4.4 21:23:29 10° SSW 21:29:44 81° ESE 21:36:01 10° NNE
Meteor 1-29 2.8 21:27:19 10° NNE 21:30:40 64° E 21:33:59 10° S
Cosmos 1833 Rocket 3.5 21:25:54 10° SSE 21:30:40 30° ESE 21:35:28 10° NE
Cosmos 1892 Rocket 4.5 21:28:35 11° SSE 21:32:12 30° E 21:36:03 10° NNE
Meteor 2-9 Rocket 4.2 21:27:07 10° N 21:32:41 75° E 21:38:22 10° SSE
DNEPR-1 R/B 4.4 21:32:39 10° NW 21:36:51 50° WSW 21:41:35 10° SSE
Tiangong 2 3.5 21:35:38 10° NW 21:38:12 22° N 21:40:44 10° NE
Cosmos 1025 Rocket 3.0 21:38:39 10° S 21:42:55 87° W 21:47:11 10° N
Okean 1-7 Rocket 3.8 21:38:44 10° S 21:43:11 77° W 21:47:42 10° N
Cosmos 1606 Rocket 4.0 21:41:06 10° N 21:45:14 43° E 21:47:52 20° SE
Cosmos 1726 Rocket 3.9 21:49:36 10° N 21:53:45 44° E 21:55:57 24° SE
Cosmos 1515 3.6 21:53:23 17° S 21:56:11 62° E 21:59:57 10° NNE
Cosmos 1624 Rocket 4.0 21:51:30 10° NNW 21:56:50 82° ENE 22:00:37 20° SSE
Cosmos 1437 Rocket 2.6 21:55:09 10° N 21:59:02 80° E 22:01:23 23° SSE
Cosmos 1939 Rocket 3.7 22:00:28 11° S 22:03:57 45° W 22:07:41 10° NNW
ARGOS 3.8 22:02:01 23° ESE 22:04:45 39° ENE 22:09:46 10° N
CZ-4B DEB 3.9 22:04:41 16° SSW 22:06:41 36° W 22:09:28 10° NNW
Cosmos 2341 Rocket 4.0 22:00:43 10° N 22:07:04 68° E 22:11:28 21° SSE
USA 245 4.5 22:08:25 14° NE 22:08:25 14° NE 22:09:07 10° NNE
Timation 2 Rocket 4.3 22:02:33 13° S 22:07:54 42° ESE 22:13:40 10° NE
Cosmos 1980 Rocket 3.9 22:04:11 10° NNE 22:08:06 19° NE 22:10:36 15° E
Hubble Space Telescope 1.9 22:04:42 10° SW 22:08:03 25° S 22:08:03 25° S
H-2A R/B 3.3 22:06:48 20° E 22:08:33 25° ENE 22:12:36 10° NNE
Envisat 4.3 22:07:25 10° SSW 22:12:06 37° W 22:16:49 10° NNW
GPS 2-04 Rocket1 4.4 22:09:29 10° SSW 22:10:20 15° SSW 22:10:20 15° SSW
Cosmos 2058 Rocket 3.1 22:11:58 10° N 22:16:22 60° E 22:18:01 36° SE
Cosmos 2056 Rocket 3.6 22:11:32 10° NNW 22:16:39 69° WSW 22:19:46 23° S
SPOT 5 3.1 22:16:39 34° ESE 22:17:56 44° ENE 22:22:05 10° N
MetOp-B 4.1 22:15:12 28° SSE 22:18:01 67° ENE 22:23:20 10° N
NOAA 11 4.1 22:21:15 28° SSE 22:24:15 85° ENE 22:29:43 10° NNW
YAOGAN 11 4.0 22:25:48 43° SE 22:27:03 66° ENE 22:31:22 10° N
Cosmos 1269 Rocket 4.4 22:26:05 36° SE 22:27:16 41° ESE 22:32:13 10° NNE
H-2A R/B 4.0 22:28:29 17° ENE 22:28:58 17° ENE 22:31:54 10° NNE
Lacrosse 5 4.1 22:32:57 11° ENE 22:32:57 11° ENE 22:33:15 10° ENE
Cosmos 1295 Rocket 4.4 22:23:11 10° N 22:29:25 85° E 22:32:58 28° S
Cosmos 839 Rocket 4.5 22:23:30 10° NNW 22:30:20 85° WSW 22:35:05 28° SSE
CZ-3A R/B 3.4 22:27:38 10° WSW 22:30:33 19° NW 22:32:06 10° N
Cosmos 2181 Rocket 4.1 22:25:10 11° S 22:31:18 78° W 22:37:36 10° N
Cosmos 1048 Rocket 4.2 22:30:46 40° SE 22:31:56 47° ESE 22:36:52 10° NNE
YAOGAN 6 4.2 22:31:01 18° SW 22:32:50 28° W 22:35:54 10° NW
Meteor 1-4 Rocket 3.1 22:29:54 10° N 22:33:01 42° ENE 22:33:01 42° ENE
OAO 2 Rocket 3.7 22:33:37 10° W 22:38:15 42° SSW 22:38:53 40° S
Cosmos 1626 Rocket 3.5 22:38:00 55° ESE 22:38:27 58° E 22:42:41 10° NNE
Cosmos 2082 Rocket 2.8 22:38:02 10° SW 22:43:36 56° WNW 22:49:10 10° NNE
DMSP B5D2-2 4.4 22:39:03 10° NNE 22:44:07 45° E 22:44:39 44° ESE
ERS-1 Rocket 3.8 22:41:26 23° SSW 22:44:12 45° W 22:49:01 10° NNW
Cosmos 921 Rocket 4.0 22:43:40 10° NNW 22:47:51 41° W 22:49:20 30° SW
Cosmos 2228 3.2 22:43:50 10° NNW 22:48:04 66° W 22:49:02 49° SSW
Cosmos 1452 Rocket 3.4 22:43:06 10° NNW 22:48:24 90° NNE 22:49:50 50° SSE
Cosmos 2278 4.2 22:44:19 10° NNW 22:49:52 54° WSW 22:52:11 33° SSW
Lacrosse 5 rocket 4.3 22:50:16 10° N 22:51:42 11° NNE 22:53:08 10° NE
Cosmos 1656 3.8 22:51:45 10° NNW 22:57:11 67° WSW 22:58:44 46° S
SPOT 1/Viking Rocket 3.4 22:59:04 56° SSE 23:00:11 89° WSW 23:05:22 10° NNW
Cosmos 1697 Rocket 2.6 22:57:13 10° NNW 23:02:51 88° WSW 23:04:02 58° SSE
SL-8 Rocket 4.3 23:00:34 10° NNW 23:06:46 64° W 23:09:24 35° SSW
Meteor 1-22 Rocket 4.0 23:05:26 10° N 23:10:48 88° W 23:11:43 63° S
USA 229 DEB 3.9 23:07:05 10° NNW 23:14:14 64° NE 23:16:22 46° ESE
Cosmos 2366 rocket 4.0 23:08:09 10° N 23:14:18 77° W 23:16:01 49° SSW
USA 229 4.0 23:07:11 10° NNW 23:14:19 64° NE 23:16:28 45° ESE
Cosmos 1833 Rocket 4.3 23:09:27 10° SW 23:14:27 33° WNW 23:19:30 10° N
SL-16 R/B 3.7 23:10:11 10° N 23:14:38 23° ENE 23:15:34 22° ENE
Cosmos 1602 Rocket 4.1 23:14:04 48° WSW 23:14:39 52° W 23:18:53 10° N
Tiangong 2 3.2 23:12:32 10° NW 23:14:31 27° NNW 23:14:31 27° NNW
Cosmos 2360 4.4 23:10:00 10° NNW 23:15:37 56° ENE 23:16:15 53° E
Cosmos 158 Rocket 4.3 23:15:00 39° SW 23:16:52 67° WNW 23:22:14 10° NNE
CZ-4 R/B 4.4 23:12:58 10° NNE 23:17:06 46° ENE 23:17:06 46° ENE
Landsat 7 3.8 23:23:13 77° WSW 23:23:14 77° WSW 23:28:01 10° NNW
Cosmos 1842 4.2 23:28:44 45° NNW 23:28:44 45° NNW 23:31:36 10° N
Cosmos 1271 Rocket 3.7 23:25:47 10° N 23:28:35 45° N 23:28:35 45° N
Meteor 2-14 Rocket 4.5 23:25:37 10° NNW 23:31:39 72° W 23:32:44 58° SSW
CZ-4B R/B 3.8 23:30:04 10° NNE 23:34:27 57° ENE 23:34:27 57° ENE
deb Chang Zheng 4 4.1 23:31:03 10° N 23:34:29 56° N 23:34:29 56° N
Terra 2.0 23:38:44 70° NW 23:38:44 70° NW 23:43:04 10° NNW
IGS 5A 4.3 23:39:45 50° NNW 23:39:45 50° NNW 23:42:54 10° NNW
CARTOSAT-1 4.2 23:40:58 53° NW 23:40:58 53° NW 23:44:25 10° NNW
SL-19 R/B 4.2 23:38:07 10° N 23:43:21 69° WNW 23:43:40 67° W
ATLAS CENTAUR R/B 3.4 23:40:47 10° N 23:42:29 20° NNE 23:42:29 20° NNE
H-2A R/B 3.2 23:47:25 31° WSW 23:47:46 32° W 23:52:15 10° NW
Cosmos 2360 Rocket 4.1 23:47:08 10° NNE 23:51:00 18° NE 23:51:48 18° ENE
Cosmos 1980 Rocket 2.5 23:46:57 10° NNW 23:52:22 56° WSW 23:52:22 56° WSW
